Location: Multiple Mirror Telescope
(31.6889°N, 110.8853°W)
Time: 10:58:20
(UTC-07:00)

Hubble Space Telescope - Pass Details

Date: 03 June 2024
Orbit: 511 x 515 km, 28.5° (Epoch: 14 June)

Event Time Altitude Azimuth Distance (km) Brightness Sun altitude
Rises 21:27:20 0° 264° (W) 2,612 4.8 -21.6°
Reaches altitude 10° 21:30:12 10° 243° (WSW) 1,724 3.5 -22.0°
Enters shadow 21:31:28 15° 226° (SW) 1,461 2.9 -22.2°
